Tracking 30922 objects as of 2-Jul-2025
HD Live streaming from Space Station
objects crossing your sky now

COSMOS 1814 DEB *

Track COSMOS 1814 DEB * now!
10-day predictions


NORAD ID: 18257
Int'l Code: 1987-006C
Perigee: 668.3 km
Apogee: 674.2 km
Inclination: 74.0 °
Period: 98.0 minutes
Semi major axis: 7042 km
RCS: 0.0165 m2 (small)
Launch date: January 21, 1987
Source: Commonwealth of Independent States (former USSR) (CIS)
Launch site: PLESETSK MISSILE AND SPACE COMPLEX (PKMTR)

Note: This is SATELLITE DEBRIS
Your satellite tracking list
Your tracking list is empty




NASA's NSSDC Master Catalog

Two Line Element Set (TLE):
1 18257U 87006C   25182.44176222  .00001973  00000-0  34130-3 0  9994
2 18257  74.0343 285.9632 0004201 125.2410 234.9154 14.69060055103573
Source of the keplerian elements: AFSPC